Simultaneous Nadir Overpasses (SNOs) Predictions

Prediction of SNOs between AQUA and METOP-C Satellite Orbit:

Table of predicted SNOs for the next 14.0 days since TLE Epoch: 9/16/2023
Index Date (AQUA) Time (AQUA) Lat,Lon (AQUA) SZA (AQUA ) Date (METOP-C) Time (METOP-C) Lat,Lon (METOP-C) SZA (METOP-C ) Distance(km) Time Diff (sec)
1 09/17/2023 23:36:41 74.80,-177.95 72.67 09/17/2023 23:36:20 74.79,-177.84 72.67 3.45 21
2 09/18/2023 00:26:05 -74.84, -10.40 107.28 09/18/2023 00:27:00 -74.84, -10.39 107.28 0.73 55
3 09/20/2023 16:39:20 -74.76, 106.52 106.33 09/20/2023 16:38:37 -74.75, 106.46 106.34 2.22 43
4 09/20/2023 17:28:46 74.82, -85.98 73.75 09/20/2023 17:29:16 74.82, -86.01 73.75 1.09 30
5 09/23/2023 09:42:00 74.75, 30.92 74.72 09/23/2023 09:40:52 74.76, 30.92 74.73 1.46 68
6 09/23/2023 10:31:25 -74.84,-161.66 105.18 09/23/2023 10:31:32 -74.82,-161.59 105.20 2.90 7
7 09/23/2023 11:20:56 75.15, 5.17 75.15 09/23/2023 11:22:05 75.17, 6.73 75.16 44.73 69
8 09/26/2023 02:44:26 -74.16, -43.28 104.83 09/26/2023 02:43:21 -74.12, -46.31 104.84 92.02 65
9 09/26/2023 03:34:03 74.79, 122.84 75.82 09/26/2023 03:33:47 74.81, 122.82 75.85 2.87 16
10 09/26/2023 04:23:28 -74.87, -69.73 104.08 09/26/2023 04:24:27 -74.87, -69.67 104.08 1.72 59
11 09/28/2023 20:36:38 -74.77, 47.26 103.14 09/28/2023 20:36:02 -74.80, 47.23 103.11 3.54 36
12 09/28/2023 21:26:04 74.84,-145.26 76.94 09/28/2023 21:26:41 74.85,-145.30 76.96 2.06 37



Historial Predications of SNOs between AQUA and METOP-C
